[[{"header":{"parameterUnit":"m.s-1","parameterCategory":1,"la1":30.2991,"la2":30.254,"lo1":-89.0895,"lo2":-89.0444,"dy":0.0017,"dx":0.0017,"nx":28,"ny":28,"refTime":"2023-08-31T21:00:00:Z","depth":0,"parameterNumber":2,"parameterNumberName":"U-component_of_WINDS"},"data":[0,0,0,0,0,0,0,0,0,0,0,0,0,0,0,0,0,0,0,0,0,0,0,0,0,0,0,0,0,0,0,0,0,0,0,0,0,0,0,0,0,0,0,0,0,0,0,0,0,0,0,0,0,0,0,0,0,0,-1.4458,-1.4458,0,-1.4433,-1.4432,-1.4432,-1.4395,-1.4395,-1.4394,-1.4394,-1.4367,-1.4367,-1.4367,0,0,0,0,0,0,0,0,0,0,0,0,0,-1.4473,-1.4473,-1.4458,-1.4458,-1.4457,-1.4433,-1.4432,-1.4432,-1.4396,-1.4395,-1.4394,-1.4393,-1.4368,-1.4367,-1.4367,0,0,0,0,0,0,0,0,0,0,0,0,0,-1.4459,-1.4473,-1.4458,-1.4436,-1.4434,-1.4433,-1.4432,-1.4432,-1.4396,-1.4395,-1.4394,-1.4393,-1.4368,-1.4367,-1.4367,-1.4385,0,0,-1.4367,-1.4367,0,0,0,0,0,0,0,0,-1.446,-1.4458,-1.444,-1.4438,-1.4435,-1.4416,-1.4428,-1.4416,-1.4396,-1.441,-1.4394,-1.4392,-1.4384,-1.4383,-1.438,-1.4384,-1.4383,-1.4367,-1.4367,-1.4367,-1.4367,0,0,0,0,0,0,0,-1.4461,-1.4459,-1.4448,-1.4439,-1.4437,-1.4427,-1.4424,-1.4426,-1.4403,-1.4409,-1.4406,-1.4404,-1.4383,-1.438,-1.4379,-1.4383,-1.4367,-1.4367,-1.4367,-1.4367,-1.4398,-1.4399,0,0,0,0,0,0,-1.4465,-1.446,-1.4449,-1.4447,-1.4445,-1.4428,-1.4424,-1.4423,-1.4403,-1.4399,-1.4405,-1.4402,-1.4381,-1.438,-1.4378,-1.4396,-1.4367,-1.4366,-1.4366,-1.4397,-1.4398,-1.4399,0,0,0,0,0,0,-1.4465,-1.4464,-1.445,-1.4453,-1.445,-1.4428,-1.4428,-1.4423,-1.4421,-1.44,-1.4395,-1.4406,-1.438,-1.4379,-1.4383,-1.4395,-1.4366,-1.4366,-1.4396,-1.4397,-1.4399,-1.4434,0,0,0,0,0,0,-1.4466,-1.4465,-1.4472,-1.4453,-1.445,-1.4456,-1.4428,-1.4423,-1.4421,-1.4417,-1.44,-1.4396,-1.4379,-1.4384,-1.4383,-1.4394,-1.4366,-1.4395,-1.4396,-1.4398,-1.4431,-1.4436,-1.444,0,0,0,0,0,-1.4467,-1.4483,-1.4472,-1.4471,-1.4459,-1.4457,-1.4455,-1.4435,-1.4422,-1.4428,-1.4414,-1.4397,-1.4394,-1.4385,-1.4384,-1.4395,-1.4394,-1.4396,-1.4398,-1.4429,-1.4435,-1.444,0,0,0,0,0,0,-1.4504,-1.448,-1.4468,-1.4479,-1.447,-1.445,-1.4458,-1.4442,-1.4437,-1.4434,-1.441,-1.4406,-1.4414,-1.4405,-1.4395,-1.441,-1.4391,-1.4393,-1.4415,-1.4421,-1.4425,-1.4426,-1.4366,0,0,0,0,0,-1.4513,-1.4514,-1.4493,-1.4505,-1.4501,-1.448,-1.4479,-1.4464,-1.4454,-1.445,-1.4437,-1.4427,-1.4423,-1.4422,-1.4418,-1.443,-1.4425,-1.4437,-1.4442,-1.4445,-1.4447,-1.445,-1.4455,-1.4406,-1.4406,-1.4406,0,0,-1.4533,-1.452,-1.4522,-1.4512,-1.4503,-1.4503,-1.4477,-1.4479,-1.4479,-1.445,-1.4453,-1.4443,-1.4431,-1.4439,-1.4442,-1.4432,-1.4459,-1.4448,-1.4451,-1.445,-1.4453,-1.4458,-1.4462,-1.4407,-1.4407,-1.4407,0,0,-1.4568,-1.4559,-1.4567,-1.4558,-1.4545,-1.4531,-1.4533,-1.4516,-1.4507,-1.4511,-1.4488,-1.4488,-1.4483,-1.4474,-1.4469,-1.45,-1.4483,-1.4499,-1.4521,-1.4525,-1.4529,-1.4532,-1.4541,-1.4545,-1.4501,-1.4501,-1.4501,0,-1.4593,-1.4593,-1.4573,-1.4575,-1.4571,-1.4545,-1.4551,-1.4544,-1.4531,-1.4528,-1.4517,-1.4509,-1.4499,-1.4504,-1.4511,-1.4509,-1.4509,-1.45,-1.453,-1.4533,-1.4536,-1.4544,-1.4548,-1.4503,-1.4503,-1.4503,-1.4503,0,-1.4624,-1.4624,-1.4632,-1.4619,-1.4615,-1.462,-1.46,-1.4599,-1.4585,-1.4572,-1.4574,-1.4561,-1.4553,-1.4553,-1.454,-1.4555,-1.4549,-1.4535,-1.4515,-1.4543,-1.455,-1.4553,-1.4506,-1.4505,-1.4505,-1.4504,0,0,-1.4681,-1.4656,-1.4659,-1.4652,-1.4635,-1.4634,-1.4638,-1.463,-1.4628,-1.462,-1.462,-1.4617,-1.4603,-1.4597,-1.4583,-1.4586,-1.4608,-1.4571,-1.457,-1.4577,-1.4622,-1.4632,-1.4636,-1.4598,-1.4598,-1.4599,-1.4622,0,-1.4711,-1.4715,-1.4696,-1.4705,-1.4703,-1.4678,-1.4681,-1.467,-1.4658,-1.4655,-1.4641,-1.4638,-1.4621,-1.4617,-1.462,-1.4605,-1.4617,-1.4604,-1.4597,-1.4597,-1.4599,-1.464,-1.465,-1.4673,-1.4625,-1.4626,-1.4626,0,-1.4747,-1.4739,-1.4748,-1.4729,-1.4728,-1.473,-1.472,-1.4718,-1.4705,-1.4696,-1.4689,-1.4672,-1.4672,-1.4655,-1.4654,-1.4645,-1.4642,-1.4634,-1.4634,-1.4632,-1.4612,-1.4636,-1.4681,-1.4683,-1.4631,-1.463,-1.463,0,-1.4785,-1.4777,-1.478,-1.4776,-1.4754,-1.4756,-1.4748,-1.4734,-1.473,-1.4721,-1.4718,-1.471,-1.4705,-1.4698,-1.4679,-1.4668,-1.468,-1.4661,-1.4671,-1.4671,-1.4673,-1.4673,-1.4716,-1.4674,-1.4674,-1.4674,-1.4674,0,-1.4819,-1.4825,-1.4797,-1.4799,-1.4804,-1.4782,-1.4787,-1.4776,-1.4764,-1.4762,-1.4741,-1.474,-1.4715,-1.4711,-1.4696,-1.4697,-1.4695,-1.4687,-1.4682,-1.4687,-1.4688,-1.4683,-1.4681,-1.4675,-1.4675,-1.4675,-1.4674,0,-1.4862,-1.4844,-1.4846,-1.4825,-1.482,-1.4825,-1.4807,-1.4807,-1.4793,-1.4792,-1.479,-1.4768,-1.4762,-1.4743,-1.4732,-1.4722,-1.4726,-1.4719,-1.473,-1.4727,-1.4737,-1.4736,-1.4777,-1.478,-1.4738,-1.4739,-1.4739,0,-1.4884,-1.4888,-1.4868,-1.4865,-1.4857,-1.4854,-1.4849,-1.4827,-1.4823,-1.4808,-1.481,-1.4802,-1.4794,-1.4786,-1.4768,-1.4759,-1.4751,-1.4766,-1.4749,-1.4754,-1.4749,-1.4748,-1.4747,-1.4769,-1.4769,-1.477,-1.477,0,-1.4925,-1.4916,-1.491,-1.4901,-1.4896,-1.4887,-1.4878,-1.4877,-1.4853,-1.4849,-1.4842,-1.4836,-1.4825,-1.4817,-1.4805,-1.4795,-1.4778,-1.4776,-1.4777,-1.4782,-1.4787,-1.4782,-1.4738,-1.4775,-1.4774,-1.4774,-1.4774,-1.4773,-1.4957,-1.4958,-1.4943,-1.4937,-1.4928,-1.4919,-1.4918,-1.4904,-1.4898,-1.4887,-1.4874,-1.4869,-1.4854,-1.4836,-1.4828,-1.4822,-1.4813,-1.4816,-1.4816,-1.4817,-1.4818,-1.479,-1.482,-1.482,-1.482,-1.482,-1.482,0,-1.4994,-1.4984,-1.4978,-1.4965,-1.496,-1.4946,-1.4934,-1.493,-1.4925,-1.4914,-1.4906,-1.4898,-1.4889,-1.4871,-1.4861,-1.486,-1.4852,-1.4858,-1.4857,-1.4854,-1.4828,-1.4827,-1.4864,-1.4864,-1.4864,-1.4864,-1.4864,-1.4864,-1.5013,-1.5014,-1.5003,-1.4998,-1.4987,-1.4981,-1.4975,-1.4967,-1.4957,-1.4948,-1.4941,-1.493,-1.4915,-1.4903,-1.4894,-1.4889,-1.4885,-1.4893,-1.4886,-1.4861,-1.4857,-1.4852,-1.4851,-1.4893,-1.4893,-1.4912,-1.4912,-1.4912]},{"header":{"parameterUnit":"m.s-1","parameterCategory":1,"la1":30.2991,"la2":30.254,"lo1":-89.0895,"lo2":-89.0444,"dy":0.0017,"dx":0.0017,"nx":28,"ny":28,"refTime":"2023-08-31T21:00:00:Z","depth":0,"parameterNumber":3,"parameterNumberName":"V-component_of_WINDS"},"data":[0,0,0,0,0,0,0,0,0,0,0,0,0,0,0,0,0,0,0,0,0,0,0,0,0,0,0,0,0,0,0,0,0,0,0,0,0,0,0,0,0,0,0,0,0,0,0,0,0,0,0,0,0,0,0,0,0,0,2.3597,2.3598,0,2.3713,2.3715,2.3716,2.3725,2.3723,2.3722,2.3721,2.3838,2.3843,2.3847,0,0,0,0,0,0,0,0,0,0,0,0,0,2.3381,2.3385,2.3597,2.3599,2.36,2.3713,2.3715,2.3716,2.3725,2.3723,2.3722,2.372,2.3837,2.3842,2.3847,0,0,0,0,0,0,0,0,0,0,0,0,0,2.3484,2.3386,2.3597,2.3618,2.3621,2.3713,2.3715,2.3717,2.3725,2.3723,2.3721,2.372,2.3835,2.3842,2.3848,2.3926,0,0,2.3868,2.3871,0,0,0,0,0,0,0,0,2.3478,2.3492,2.3613,2.3617,2.362,2.3703,2.3682,2.3787,2.3726,2.3686,2.3721,2.3719,2.3795,2.3804,2.383,2.3932,2.3937,2.3868,2.3872,2.3875,2.3877,0,0,0,0,0,0,0,2.3471,2.3487,2.3643,2.3615,2.3619,2.3621,2.3634,2.3702,2.3749,2.3689,2.369,2.3704,2.3796,2.3824,2.3833,2.3938,2.3868,2.3874,2.3878,2.388,2.4109,2.4111,0,0,0,0,0,0,2.346,2.3481,2.3639,2.3647,2.3543,2.3627,2.3641,2.3678,2.3749,2.3758,2.3705,2.3704,2.3814,2.3826,2.3837,2.3933,2.3875,2.3881,2.3885,2.4107,2.411,2.4112,0,0,0,0,0,0,2.3455,2.3474,2.3635,2.3564,2.3585,2.3632,2.3674,2.3681,2.3709,2.3761,2.3769,2.3725,2.3813,2.3828,2.3904,2.3937,2.3884,2.389,2.4104,2.4108,2.4111,2.4125,0,0,0,0,0,0,2.3449,2.3472,2.3503,2.3565,2.3588,2.37,2.3677,2.3685,2.3721,2.372,2.3782,2.379,2.3813,2.3894,2.391,2.3945,2.3895,2.4101,2.4106,2.411,2.4122,2.4129,2.4135,0,0,0,0,0,2.3441,2.3502,2.3504,2.3524,2.3628,2.3702,2.3715,2.374,2.3723,2.3754,2.3787,2.3788,2.3931,2.3902,2.392,2.3957,2.4099,2.4105,2.4109,2.4119,2.4128,2.4134,0,0,0,0,0,0,2.3443,2.3511,2.3514,2.3597,2.3644,2.3703,2.3743,2.3748,2.38,2.3797,2.3826,2.384,2.3914,2.3944,2.391,2.4036,2.4013,2.4022,2.4015,2.4023,2.4029,2.402,2.39,0,0,0,0,0,2.3453,2.3508,2.3564,2.3632,2.3655,2.3695,2.3728,2.3743,2.3793,2.3813,2.3851,2.3899,2.3954,2.399,2.4044,2.4126,2.414,2.4161,2.4167,2.4172,2.4179,2.4224,2.4234,2.4128,2.4128,2.4128,0,0,2.3474,2.3518,2.3551,2.3633,2.3671,2.3727,2.3712,2.3772,2.3813,2.3822,2.3896,2.3925,2.398,2.4059,2.4096,2.4086,2.4211,2.4178,2.4182,2.4186,2.423,2.424,2.4249,2.4131,2.4131,2.413,0,0,2.3542,2.3581,2.3641,2.3679,2.3737,2.3763,2.3778,2.3837,2.3857,2.3932,2.3939,2.3989,2.4084,2.4122,2.4154,2.4236,2.4238,2.4252,2.4285,2.4328,2.4337,2.4344,2.4373,2.4383,2.4259,2.426,2.426,0,2.3561,2.3646,2.3671,2.3731,2.3767,2.3777,2.3838,2.3874,2.3946,2.397,2.3958,2.4077,2.4115,2.4203,2.4223,2.4249,2.4266,2.4245,2.4333,2.4341,2.4349,2.4376,2.4387,2.4261,2.4261,2.4261,2.426,0,2.3666,2.3725,2.3767,2.3836,2.3877,2.3937,2.3971,2.4008,2.402,2.4047,2.4122,2.4168,2.4231,2.4253,2.4265,2.4343,2.4335,2.4328,2.4305,2.436,2.4386,2.4397,2.4263,2.4262,2.4262,2.4262,0,0,2.3738,2.3821,2.3836,2.3868,2.3932,2.3977,2.4037,2.41,2.4131,2.418,2.4231,2.4311,2.4305,2.4341,2.4357,2.4396,2.4456,2.4384,2.4385,2.4395,2.4545,2.455,2.4562,2.4459,2.4461,2.4462,2.454,0,2.3813,2.3921,2.3945,2.4038,2.4092,2.4102,2.4154,2.4199,2.4226,2.4275,2.4304,2.4361,2.4348,2.437,2.4408,2.4441,2.4487,2.4436,2.4506,2.4508,2.4492,2.4575,2.4581,2.4652,2.4551,2.4552,2.4554,0,2.3914,2.3966,2.4064,2.412,2.4144,2.4191,2.4249,2.4296,2.4347,2.4364,2.4404,2.4416,2.4478,2.4452,2.4538,2.4503,2.4533,2.4553,2.4556,2.4564,2.4534,2.4585,2.4675,2.4686,2.457,2.4569,2.4568,0,2.3957,2.4051,2.4121,2.4148,2.4216,2.4248,2.4278,2.4327,2.4362,2.4413,2.4436,2.4494,2.4525,2.4569,2.4596,2.4574,2.4679,2.4656,2.4694,2.4694,2.4716,2.4714,2.4813,2.4736,2.4735,2.4735,2.4735,0,2.4037,2.4097,2.4141,2.4185,2.4251,2.4278,2.4343,2.4373,2.4416,2.4465,2.4477,2.4523,2.4556,2.4605,2.4627,2.4694,2.4708,2.4723,2.4728,2.4722,2.472,2.4742,2.4738,2.4738,2.4738,2.4737,2.4736,0,2.4096,2.4129,2.4206,2.4264,2.428,2.4326,2.4375,2.4417,2.4444,2.4506,2.4522,2.4563,2.4623,2.4654,2.4728,2.4742,2.4818,2.482,2.4801,2.4803,2.484,2.4836,2.4956,2.4973,2.4884,2.4885,2.4886,0,2.4146,2.4192,2.4254,2.4288,2.4318,2.4372,2.4408,2.4436,2.4474,2.4534,2.4569,2.4629,2.4679,2.4773,2.4809,2.4866,2.487,2.4907,2.4878,2.487,2.487,2.4867,2.4871,2.4913,2.4913,2.4914,2.4915,0,2.423,2.4243,2.4295,2.4353,2.4396,2.4442,2.4488,2.4515,2.455,2.4591,2.4652,2.4691,2.4766,2.4826,2.4885,2.4915,2.4921,2.4924,2.4936,2.493,2.4917,2.4924,2.4815,2.4921,2.492,2.492,2.4919,2.4919,2.4286,2.4327,2.4377,2.4434,2.4471,2.4514,2.4556,2.4588,2.4639,2.4703,2.4716,2.4781,2.4829,2.491,2.4941,2.4991,2.4984,2.5001,2.5005,2.5009,2.5011,2.4909,2.5002,2.5002,2.5002,2.5002,2.5002,0,2.437,2.4403,2.4455,2.4519,2.4564,2.4565,2.4616,2.4653,2.471,2.4755,2.4803,2.4873,2.493,2.4971,2.5029,2.5062,2.5066,2.5076,2.5074,2.5081,2.5015,2.4998,2.5072,2.5072,2.5072,2.5072,2.5072,2.5072,2.442,2.4489,2.4508,2.4596,2.4628,2.4691,2.472,2.4759,2.4795,2.4872,2.492,2.4946,2.4989,2.5051,2.5103,2.5114,2.5135,2.5145,2.5155,2.5093,2.5085,2.5078,2.5063,2.5149,2.5149,2.5217,2.5218,2.5218]}]]